Location: Strawberry
(45.6646°N, 111.9596°W)
Time: 17:38:57
(UTC+00:00)

SR - Pass Details

Date: 03 October 2022
Orbit: 577 x 874 km, 66.7° (Epoch: 05 December)

Event Time Altitude Azimuth Distance (km) Brightness Sun altitude
Exits shadow 10:07:57 - 330° (NNW) 3,384 ? -34.2°
Reaches altitude 10° 10:12:28 10° 2° (N) 2,420 ? -33.6°
Maximum altitude 10:14:10 11° 20° (NNE) 2,299 ? -33.3°
Drops below altitude 10° 10:15:51 10° 39° (NE) 2,363 ? -33.1°
Sets 10:20:11 0° 73° (ENE) 3,204 ? -32.4°
